User: anonymous   Login
Location: Newsoms
(36.6240°N, 77.1250°W)
Time: 01:28:15
(UTC-04:00)
Language:

BREEZE-M DEB (TANK) - Orbit

View from above orbital plane
View from above orbital plane
View from above satellite
View from above satellite

Ground track
Ground track

The orbit data is extracted from the following two-line orbital elements,

1 29649U 06056B   16152.30293210  .00002703  00000-0  36898-3 0  9991
2 29649  49.4584 152.9050 5398748 283.1861  24.3188  4.98457208168706
Epoch (UTC): 31 May 2016 07:16:13
Eccentricity: 0.5398748
inclination: 49.4584°
perigee height: 282 km
apogee height: 15913 km
right ascension of ascending node: 152.9050°
argument of perigee: 283.1861°
revolutions per day: 4.98457208
mean anomaly at epoch: 24.3188°
orbit number at epoch: 16870

The dashed part of the orbit path shows where the satellite is in the earth's shadow,  

DLR